sat.trackr.live / text

‹ back to catalog

STARLINK-31499

NORAD 59217 · 2024-046S

PAYLOAD ACTIVE UNKNOWN

§ Identity

Operator
Country
US
Launch date
2024-03-11
Launch site
AFWTR
Launch vehicle
Mass (kg)
RCS (m²)

Purposes: comms

External: N2YO · Heavens-Above · Gunter

§ Orbital elements

Epoch: 2026-05-25T00:51:14.101632Z

Period
93.85 min
Inclination
53.1605°
Eccentricity
0.0001254
Mean motion
15.34389373 rev/d
Perigee alt
461.9 km
Apogee alt
463.6 km
Semi-major
6,840.9 km
B*
2.1036e-5
RAAN
159.6430°
Arg perigee
86.4741°
Mean anomaly
273.6405°
Rev number
12,474

§ Raw data

STARLINK-314991 59217U 24046S   26145.03557988  .00000334  00000+0  21036-4 0  99982 59217  53.1605 159.6430 0001254  86.4741 273.6405 15.34389373124747

JSON: /api/v1/satellites/59217 · /tle

For live sub-satellite position, see the globe view (requires WebGL).

§ Visibility from observer

Set your observer location to see the next 7 days of passes ≥ 10°. The values pass through the URL so the page stays shareable.

No JS? Fill the form by hand. The geolocation button needs JavaScript.